Chiang Mai, Thailand

2:53 PM ICT on October 24, 2014 (GMT +0700)
ThaiWx Station | Change Station
CLOSE
Current Station
Personal Weather Station
Location: Chiang Mai, Pa Daet
Elevation: 1007 ft
Nearby Weather Stations

Elev 1007 ft 18.77 °N, 98.97 °E | Updated 4 minutes ago

Scattered Clouds
Scattered Clouds
85.8 °F
Feels Like 92 °F
N
0.0
Wind Variable Wind from SSE
Gusts 5.4 mph

Today
High -- | Low -- °F
--% Chance of Precip.
Yesterday
High -- | Low -- °F
Precip. -- in
6:20 AM 5:55 PM
New Moon, 0% visible
Pressure 29.89 in
Visibility 6.2 miles
Clouds Scattered Clouds 3500 ft
Heat Index 92 °F
Dew Point 72 °F
Humidity 63%
Rainfall 0.31 in
Snow Depth Not available.
UV 7 out of 12
Pollen Not available.
Air Quality Not available.
Flu Activity Not available.
METAR VTCC 240730Z 12003KT 9999 SCT035 30/19 Q1012 A2989 NOSIG

More Conditions Fewer Conditions

Pressure 29.89 in
Visibility 6.2 miles
Clouds Scattered Clouds 3500 ft
Heat Index 92 °F
Dew Point 72 °F
Humidity 63%
Rainfall 0.31 in
Snow Depth Not available.
UV 7 out of 12
Pollen Not available.
Air Quality Not available.
Flu Activity Not available.
METAR VTCC 240730Z 12003KT 9999 SCT035 30/19 Q1012 A2989 NOSIG

More Conditions Fewer Conditions

10-Day Weather Forecast

Almanac

Astronomy

Oct. 24, 2014 Rise Set
Actual Time 6:20 AM ICT 5:55 PM ICT
Civil Twilight 5:58 AM ICT 6:17 PM ICT
Nautical Twilight 5:32 AM ICT 6:43 PM ICT
Astronomical Twilight 5:07 AM ICT 7:09 PM ICT
Moon 6:28 AM ICT 6:18 PM ICT
Length of Visible Light 12h 19m
Length of Day
11h 34m
Tomorrow will be 0m 58s shorter.
New Moon, 0% of the Moon is Illuminated
Today
New Moon
Oct 30
First Quarter
Nov 6
Full
Nov 14
Last Quarter
Nov 22
New

Yesterday's Extremes

Country Highs Country Lows

Community

WunderPhotos

Upload Photos

1,764,512 photos uploaded!

WunderBlogs® & News

Nearby

Snow Depth

Not available.

Earthquake Activity

City Distance Mag. Time & Date
No recent earthquake activity has been reported nearby.
Minimum magnitude displayed is 2.5.

Coastal Water Temperatures

Place Temperature
No Stations Reporting

Nearby Weather Stations